Home > Weather > Bradford > Past weeks

Flag for United Kingdom Past Weather in Bradford, England, United Kingdom — Yesterday and Last 2 Weeks

Now
54 °F

Passing clouds.


Feels Like: 50 °F
Forecast: 48 / 60 °F
Wind: 13 mph from North

Location: Leeds And Bradford

Current Time: May 30, 2016 at 9:35:17 PM

Latest Report: May 30, 2016 at 9:20 PM


Visibility: N/A

Pressure: 30.15 "Hg

Humidity: 77%

Dew Point: 46 °F

Location of BradfordLocation

Past Weather in Bradford — Graph

°F

Bradford Temperature Yesterday

Maximum temperature yesterday: 59 °F (at 3:20 PM)
Minimum temperature yesterday: 45 °F (at 4:20 AM)
Average temperature yesterday: 51 °F

High & Low Weather Summary for the Past Weeks

 TemperatureHumidityPressure
High63 °F (May 17, 3:50 PM)100% (May 18, 7:20 AM)30.24 "Hg (May 18, 7:20 AM)
Low41 °F (May 16, 1:50 AM)49% (May 17, 5:20 PM)29.56 "Hg (May 18, 6:20 AM)
Average51 °F85%29.94 "Hg
* Reported May 15 8:20 PM — May 30 8:20 PM, Bradford, Weather by CustomWeather, © 2016

Note: Actual official high and low records may vary slightly from our data, if they occured in-between our weather recording intervals... More about our weather records

Advertising

Bradford Weather History for the Previous 24 Hours

Scroll right to see more
 ConditionsComfort  
Time TempWeatherWind HumidityBarometerVisibility
8:20 PM
Mon, May 30
55 °FPassing clouds.15 mph72%30.12 "HgN/A
7:50 PM57 °FPassing clouds.15 mph72%30.12 "HgN/A
7:20 PM57 °FPartly sunny.15 mph72%30.12 "HgN/A
6:50 PM57 °FPartly sunny.16 mph72%30.12 "HgN/A
6:20 PM57 °FPartly sunny.17 mph77%30.12 "HgN/A
5:50 PM57 °FPartly sunny.14 mph77%30.12 "HgN/A
5:20 PM57 °FScattered clouds.14 mph77%30.12 "HgN/A
4:50 PM57 °FScattered clouds.13 mph77%30.12 "HgN/A
4:20 PM57 °FScattered clouds.14 mph82%30.12 "HgN/A
3:50 PM57 °FScattered clouds.13 mph77%30.12 "HgN/A
3:20 PM59 °FScattered clouds.14 mph77%30.12 "HgN/A
2:50 PM57 °FScattered clouds.14 mph82%30.12 "HgN/A
2:20 PM57 °FScattered clouds.14 mph82%30.12 "HgN/A
1:50 PM55 °FOvercast.13 mph88%30.12 "HgN/A
1:20 PM55 °FLow clouds.12 mph82%30.12 "HgN/A
12:50 PM54 °FLow clouds.13 mph88%30.12 "HgN/A
12:20 PM54 °FBroken clouds.12 mph88%30.12 "HgN/A
11:50 AM52 °FBroken clouds.10 mph94%30.12 "HgN/A
11:20 AM52 °FBroken clouds.9 mph88%30.12 "HgN/A
10:50 AM50 °FBroken clouds.9 mph94%30.12 "HgN/A
10:20 AM50 °FBroken clouds.10 mph94%30.12 "HgN/A
9:50 AM50 °FBroken clouds.12 mph94%30.12 "Hg6 mi
9:20 AM48 °FBroken clouds.13 mph100%30.12 "Hg4 mi
8:50 AM48 °FFog.10 mph100%30.09 "Hg3 mi
8:20 AM48 °FFog.13 mph100%30.09 "Hg1 mi
7:50 AM46 °FFog.12 mph100%30.09 "Hg1 mi
7:20 AM46 °FFog.12 mph100%30.09 "Hg1 mi
6:50 AM46 °FFog.12 mph100%30.09 "Hg1 mi
6:20 AM46 °FFog.10 mph100%30.07 "Hg1 mi
5:50 AM46 °FFog.14 mph100%30.07 "Hg1 mi
5:20 AM46 °FFog.13 mph100%30.07 "Hg1 mi
4:50 AM46 °FFog.10 mph100%30.07 "Hg1 mi
4:20 AM46 °FFog.6 mph100%30.07 "Hg1 mi
3:50 AM46 °FFog.9 mph100%30.07 "Hg1 mi
3:20 AM46 °FFog.7 mph100%30.09 "Hg1 mi
2:50 AM46 °FFog.8 mph100%30.07 "Hg1 mi
2:20 AM46 °FFog.8 mph100%30.07 "Hg2 mi
1:50 AM46 °FFog.8 mph100%30.07 "Hg2 mi
1:20 AM46 °FFog.8 mph100%30.07 "Hg2 mi
12:50 AM48 °FFog.7 mph94%30.07 "Hg3 mi
12:20 AM48 °FFog.8 mph100%30.09 "Hg3 mi
11:50 PM
Sun, May 29
48 °FPassing clouds.10 mph100%30.09 "Hg4 mi
11:20 PM48 °FPassing clouds.10 mph100%30.07 "Hg4 mi
10:50 PM48 °FPassing clouds.8 mph100%30.07 "Hg4 mi
10:20 PM48 °FScattered clouds.9 mph100%30.07 "Hg4 mi
9:50 PM48 °FPassing clouds.9 mph100%30.07 "HgN/A
9:20 PM50 °FPassing clouds.7 mph94%30.07 "HgN/A
Weather by CustomWeather, © 2016

See weather overviewHow to use our weather pages